Regional Weather Roundup
Issued by NWS Charleston, SC

Current Version | Previous Version | Text Only | Print | Product List | Glossary On
Versions: 1 2 3 4 5 6 7 8 9 10 11 12 13 14 15 16 17 18 19 20 21 22 23 24 25 26 27 28 29 30 31 32 33 34 35 36 37 38 39 40 41 42 43 44 45 46 47 48 49 50
000
ASUS42 KCHS 292327
RWRCHS

REGIONAL WEATHER ROUNDUP
NATIONAL WEATHER SERVICE CHARLESTON SC
700 PM EDT WED JUL 29 2015

NOTE: "FAIR" INDICATES FEW OR NO CLOUDS BELOW 12,000 FEET WITH NO
SIGNIFICANT WEATHER AND/OR OBSTRUCTIONS TO VISIBILITY.

NOT ALL STATIONS ARE QUALITY CONTROLLED BY THE NATIONAL
WEATHER SERVICE. USE DATA WITH CAUTION...ESPECIALLY
DEWPOINT OBSERVATIONS.

SCZ027-030-031-034>040-042>050-300000-
...SOUTHEAST SOUTH CAROLINA...

CITY           SKY/WX    TMP DP  RH WIND       PRES   REMARKS
N CHARLESTON   MOSUNNY   86  75  69 SE14      29.92R HX  95
WATERFRONT PRK   N/A     86  79  79 E14       29.90S HX  99
MOUNT PLEASANT FAIR      84  75  74 E6        29.93R HX  92
JOHNS ISLAND   FAIR      84  77  79 E9        29.93S HX  94
PINOPOLIS      NOT AVBL
MONCKS CORNER  FAIR      90  70  51 SE6       29.92R HX  95
SUMMERVILLE    FAIR      90  77  66 SE7       29.92R HX 102
BEAUFORT MCAS  MOSUNNY   87  75  67 E12       29.92R HX  96
BEAUFORT ARPT  FAIR      86  77  74 E6        29.93R HX  97
HILTON HEAD IS SUNNY     84  75  74 E6        29.93R HX  92
WALTERBORO     CLEAR     95  64  36 E5        29.92S HX  97
ALLENDALE      FAIR      91  72  52 CALM      29.89F HX  98

...SOUTHERN MIDLANDS AND PEE DEE...

CITY           SKY/WX    TMP DP  RH WIND       PRES   REMARKS
GEORGETOWN     NOT AVBL
KINGSTREE      NOT AVBL
ORANGEBURG     MOSUNNY   94  64  37 E5        29.91S HX  95
BARNWELL       FAIR      93  72  49 CALM      29.91S HX 100
AIKEN          FAIR      90  64  43 SE3       29.95F HX  91
MANNING        FAIR      90  64  43 S6        29.91R HX  91
COLUMBIA       PTSUNNY   93  70  46 NW8       29.90R HX  99
SUMTER         MOSUNNY   95  66  38 E6        29.89R HX  97
FLORENCE       SUNNY     94  66  39 SE8       29.90S HX  97
MYRTLE BEACH   MOSUNNY   86  70  58 SE14      29.95S HX  90
N MYRTLE BEACH SUNNY     84  72  67 E16       29.93S

$$

GAZ063-065-086>088-099>101-113>116-118-119-134>141-150-300000-
...SOUTHEAST GEORGIA...

CITY           SKY/WX    TMP DP  RH WIND       PRES   REMARKS
SAVANNAH ARPT  PTSUNNY   88  74  63 E10       29.92R HX  96
HUNTER AAF     MOSUNNY   86  77  73 SE8       29.90R HX  97
FORT STEWART   PTSUNNY   89  75  62 SE9       29.89R HX  99
STATESBORO     PTSUNNY   88  75  66 S3        29.90S HX  97
SYLVANIA       MOCLDY    94  74  53 SE5       29.91S HX 104
CLAXTON        FAIR      91  73  55 SE3       29.90S HX 100

...CSRA...CENTRAL AND FAR SOUTHEAST GEORGIA...

CITY           SKY/WX    TMP DP  RH WIND       PRES   REMARKS
THOMSON        PTSUNNY   82  80  96 CALM      29.97S HX  93
AUGUSTA-BUSH   MOSUNNY   91  74  57 VRB3      29.89F HX 100
AUGUSTA-DANIEL PTSUNNY   90  74  59 CALM      29.92F HX  99
SWAINSBORO     MOCLDY    88  73  62 NW10G17   29.93R HX  96
VIDALIA        HVY RAIN  91  72  52 CALM      29.91F HX  98
EASTMAN        FAIR      89  78  68 CALM      29.94S HX 102
HAZLEHURST     FAIR      91  76  61 CALM      29.90S HX 103
ALMA           SUNNY     93  75  55 SE3       29.90R HX 104
WAYCROSS       MOSUNNY   93  80  65 SE5       29.91R HX 112
JESUP          FAIR      91  77  62 SE3       29.92R HX 105
BAXLEY         PTSUNNY   91  77  62 SE6       29.91R HX 105
BRUNSWICK      SUNNY     86  75  70 E9        29.95R HX  95
SAINT SIMONS   MOSUNNY   84  75  74 E8        29.93R HX  92

$$

SCZ027-028-034-036>038-045-046-048>050-GAZ119-141-300000-
...LAKE AND SUPPLEMENTAL COASTAL OBSERVATIONS...

STATION/POSITION TIME  TEMP    WIND        PRES    WAVE   SWELL
                       AIR SEA DIR/SP/G            HT/PER HT/PER/DIR
                 (UTC) (F)     (DEG/KT/KT) (MB)    (FT/S) (FT/S/D)
UPR LAKE MARION  NOT AVBL
WINYAH BAY       2245   83      90/ 13     1013.0
LAKE MURRAY      2200   88     280/  8/ 12 1012.5R
ACE BASIN NERRS  2200   88     130/  3     1013.0
FORT PULASKI     2300   85 86  100/  7/  9 1014.0
SAPELO ISLAND    2300   87     110/  5     1013.0S

$$

ANZ835-935-AMZ111-154-330-350-352-354-370-450-454-472-300000-
...C-MAN AND BUOY OBSERVATIONS...

STATION/POSITION TIME  TEMP    WIND        PRES    WAVE   SWELL
                       AIR SEA DIR/SP/G            HT/PER HT/PER/DIR
                 (UTC) (F)     (DEG/KT/KT) (MB)    (FT/S) (FT/S/D)
BUOY 41004       2250   84 85   60/ 16/ 17 1012.2F   4/ 5   2/10
BUOY 41008       2250   82 82   80/  6/  8 1013.3R   2/ 7   2/110/ 7
FOLLY BEACH CMAN 2300   82      90/ 15/ 18 1013.6R
CAPERS NEARSHORE 2208   82      90/ 14/ 17 1013.4S
FRIPP NEARSHORE  2200   84     100/ 10/ 14 1012.5F


STATION/POSITION TIME  TEMP    WIND        PRES    WAVE   SWELL
                       AIR SEA DIR/SP/G            HT/PER HT/PER/DIR
                 (UTC) (F)     (DEG/KT/KT) (MB)    (FT/S) (FT/S/D)
5E ST. MARYS GA  2221      83                N/A     2/11
FRYING PAN BUOY  2250   83 84   50/ 14/ 16 1013.4F   4/ 6   2/110/11
BUOY 41025       2250   82 85  100/ 12/ 16 1014.7S   4/ 6   2/ 80/ 9
CAPE LOOKOUT NC  2300   81      60/ 14/ 16 1014.0F
BUOY 41002       2250   83 82  230/ 16/ 19 1014.6R   5/ 7   2/100/10
BUOY 41010       2220   75 84  200/ 25/ 31 1012.7S
ST AUGUSTINE FL  2300   82 82   90/  2/  2 1014.4R


$$


USA.gov is the U.S. government's official web portal to all federal, state and local government web resources and services.